| time (UTC) | temp C | wind direction | speed KPH | gust KPH | rain 1hr cm | rain 24hr cm | rain mn cm | humidity % | barometer mb |
| 20260505125028 | 31 | 293 | 6.4 | 6.4 | 0.00 | 0.00 | 0.00 | 78 | 994.9 |
| 20260505124028 | 31 | 270 | 8.0 | 8.0 | 0.00 | 0.00 | 0.00 | 78 | 994.6 |
| 20260505123528 | 31 | 270 | 8.0 | 8.0 | 0.00 | 0.00 | 0.00 | 78 | 994.6 |
| 20260505123028 | 31 | 270 | 8.0 | 8.0 | 0.00 | 0.00 | 0.00 | 77 | 994.6 |
| 20260505122528 | 32 | 270 | 8.0 | 8.0 | 0.00 | 0.00 | 0.00 | 77 | 994.2 |
| 20260505122028 | 32 | 248 | 9.7 | 9.7 | 0.00 | 0.00 | 0.00 | 76 | 994.2 |
| 20260505121528 | 32 | 225 | 9.7 | 9.7 | 0.00 | 0.00 | 0.00 | 76 | 993.9 |
| 20260505120028 | 32 | 270 | 9.7 | 9.7 | 0.00 | 0.00 | 0.00 | 75 | 993.9 |
| 20260505114028 | 33 | 270 | 9.7 | 9.7 | 0.00 | 0.00 | 0.00 | 74 | 993.6 |
| 20260505112528 | 35 | 23 | 8.0 | 8.0 | 0.00 | 0.00 | 0.00 | 72 | 993.6 |
| 20260505111528 | 35 | 248 | 8.0 | 8.0 | 0.00 | 0.00 | 0.00 | 72 | 993.6 |
| 20260505110528 | 35 | 248 | 4.8 | 4.8 | 0.00 | 0.00 | 0.00 | 72 | 993.2 |
| 20260505025835 | 27 | 45 | 0.0 | 0.0 | 0.00 | 0.00 | 0.00 | 92 | 998.0 |
| 20260505025335 | 27 | 68 | 0.0 | 0.0 | 0.00 | 0.00 | 0.00 | 93 | 997.6 |
| 20260505023835 | 27 | 113 | 0.0 | 0.0 | 0.00 | 0.00 | 0.00 | 96 | 997.6 |
| 20260505022835 | 26 | 45 | 0.0 | 0.0 | 0.00 | 0.00 | 0.00 | 97 | 997.3 |
| 20260505022335 | 26 | 45 | 0.0 | 0.0 | 0.00 | 0.00 | 0.00 | 97 | 997.3 |
| 20260505021835 | 26 | 45 | 0.0 | 0.0 | 0.00 | 0.00 | 0.00 | 98 | 997.3 |
| 20260505021335 | 26 | 45 | 0.0 | 0.0 | 0.00 | 0.00 | 0.00 | 98 | 997.3 |
| 20260505012522 | 25 | 270 | 0.0 | 0.0 | 0.00 | 0.00 | 0.00 | 99 | 997.0 |
| 20260505011522 | 25 | 270 | 0.0 | 0.0 | 0.00 | 0.00 | 0.00 | 99 | 997.0 |
| 20260505010523 | 25 | 248 | 0.0 | 0.0 | 0.00 | 0.00 | 0.00 | 99 | 996.6 |
| 20260505010023 | 25 | 248 | 0.0 | 0.0 | 0.00 | 0.00 | 0.00 | 99 | 996.6 |
| 20260505004023 | 25 | 248 | 0.0 | 0.0 | 0.00 | 0.00 | 0.00 | 99 | 996.6 |